Weather in Tetouan

Morocco     35°34′28″N   5°22′26″W
temp.,
°C
wind,
m/s
gust,
m/s
humid.,
%
clouds,
%
prec.,
mm/h
press.,
hPa
HPBL,
m
14 april, wed
wed1400:00+14e4597100 0.2 1018370
03:00+13e4696100 0.2 1016409
06:00+13e3496100 0.3 1016322
09:00+13ene3498100 1.1 1016371
12:00+13e3498100 5.2 1016327
15:00+13e4597100 5.3 1015480
18:00+13e4697100 6.4 1015563
21:00+13e4696100 0.4 1015500
15 april, thu
thu1500:00+13e4595100 0.6 1014406
03:00+13e3498100 0.5 1013258
06:00+13ene2398100 1.0 1012201
09:00+13e3498100 1.0 1014378
12:00+13e3597100 3.3 1013468
15:00+13e4596100 1.0 1013543
18:00+13e4595100 1.3 1014399
21:00+12ese3595100 0.2 1015298
16 april, fri
fri1600:00+12ese3494100 0.3 1015170
03:00+12e349499 0.1 1015249
06:00+12e3596100 0.4 1015295
09:00+13e339287 0.3 1017393
12:00+16ene337632 0.4 1016742
15:00+16ene337420 0.0 1016636
18:00+14ene218034 0.0 1016245
21:00+12ssw32855 0.0 101735
17 april, sat
sat1700:00+12sw22675 0.0 101618
03:00+12sw32674 0.0 101526
06:00+12sw2275100 0.0 101519
09:00+18nw1266100 0.1 1016390
12:00+20nne355814 0.1 10161595
15:00+20nnw35511 0.0 10161736
18:00+15e238819 0.0 1019287
21:00+12se3373100 0.0 102131
18 april, sun
sun1800:00+12se33865 0.0 102262
03:00+11e33873 0.0 1021104
06:00+10ese22876 0.0 1022104
09:00+15e336638 0.0 1022605
12:00+17ene335377 0.0 1021585
15:00+16ene3250100 0.0 1020460
18:00+14se2260100 0.0 102146
21:00+12s22339 0.0 102213